Location: Sobotiste
(48.7170°N, 17.4000°E)
Time: 21:36:00
(UTC+02:00)

ITUPSAT 1 - Pass Details

Date: 23 March 2026
Orbit: 686 x 698 km, 98.4° (Epoch: 20 April)

Event Time Altitude Azimuth Distance (km) Brightness Sun altitude
Rises 23:55:06 0° 10° (N) 3,070 ? -40.0°
Reaches altitude 10° 23:57:23 10° 6° (N) 2,148 ? -40.0°
Enters shadow 23:58:07 14° 4° (N) 1,861 ? -40.0°
